Time,TemperatureF,DewpointF,PressureIn,WindDirection,WindDirectionDegrees,WindSpeedMPH,WindSpeedGustMPH,Humidity,HourlyPrecipIn,Conditions,Clouds,dailyrainin,SoftwareType,DateUTC
2013-06-11 00:03:00,59.0,56.0,-100.00,North,-999,-999.0,-999.0,89,0.05,,,-99.99,,2013-06-11 04:03:00,
2013-06-11 00:13:00,59.0,56.0,-100.00,North,-999,-999.0,-999.0,89,0.05,,,-99.99,,2013-06-11 04:13:00,
2013-06-11 00:23:00,59.0,56.0,-100.00,North,-999,-999.0,-999.0,89,0.05,,,-99.99,,2013-06-11 04:23:00,
2013-06-11 00:33:00,59.0,56.0,-100.00,North,-999,-999.0,-999.0,89,0.05,,,-99.99,,2013-06-11 04:33:00,
2013-06-11 00:42:00,59.0,56.0,-100.00,North,-999,-999.0,-999.0,89,0.05,,,-99.99,,2013-06-11 04:42:00,
2013-06-11 01:02:00,59.0,56.0,-100.00,North,-999,0.0,-999.0,89,0.04,,,0.16,,2013-06-11 05:02:00,
2013-06-11 01:12:00,59.0,56.0,-100.00,North,-999,0.0,-999.0,89,0.04,,,0.16,,2013-06-11 05:12:00,
2013-06-11 01:22:00,59.0,56.0,-100.00,North,-999,0.0,-999.0,89,0.04,,,0.16,,2013-06-11 05:22:00,
2013-06-11 01:32:00,59.0,56.0,-100.00,North,-999,0.0,-999.0,89,0.04,,,0.16,,2013-06-11 05:32:00,
2013-06-11 01:42:00,59.0,56.0,-100.00,North,-999,0.0,-999.0,89,0.04,,,0.16,,2013-06-11 05:42:00,
2013-06-11 02:02:00,58.0,55.0,-100.00,North,-999,-999.0,-999.0,90,0.02,,,0.18,,2013-06-11 06:02:00,
2013-06-11 02:12:00,58.0,55.0,-100.00,North,-999,-999.0,-999.0,90,0.02,,,0.18,,2013-06-11 06:12:00,
2013-06-11 02:22:00,58.0,55.0,-100.00,North,-999,-999.0,-999.0,90,0.02,,,0.18,,2013-06-11 06:22:00,
2013-06-11 02:32:00,58.0,55.0,-100.00,North,-999,-999.0,-999.0,90,0.02,,,0.18,,2013-06-11 06:32:00,
2013-06-11 02:42:00,58.0,55.0,-100.00,North,-999,-999.0,-999.0,90,0.02,,,0.18,,2013-06-11 06:42:00,
2013-06-11 03:02:00,56.0,53.0,-100.00,North,-999,0.0,-999.0,89,0.01,,,0.19,,2013-06-11 07:02:00,
2013-06-11 03:13:00,56.0,53.0,-100.00,North,-999,0.0,-999.0,89,0.01,,,0.19,,2013-06-11 07:13:00,
2013-06-11 03:22:00,56.0,53.0,-100.00,North,-999,0.0,-999.0,89,0.01,,,0.19,,2013-06-11 07:22:00,
2013-06-11 03:32:00,56.0,53.0,-100.00,North,-999,0.0,-999.0,89,0.01,,,0.19,,2013-06-11 07:32:00,
2013-06-11 03:42:00,56.0,53.0,-100.00,North,-999,0.0,-999.0,89,0.01,,,0.19,,2013-06-11 07:42:00,
2013-06-11 04:03:00,55.0,52.0,-100.00,North,-999,0.0,-999.0,89,0.03,,,-99.99,,2013-06-11 08:03:00,
2013-06-11 04:12:00,55.0,52.0,-100.00,North,-999,0.0,-999.0,89,0.03,,,-99.99,,2013-06-11 08:12:00,
2013-06-11 04:22:00,55.0,52.0,-100.00,North,-999,0.0,-999.0,89,0.03,,,-99.99,,2013-06-11 08:22:00,
2013-06-11 04:32:00,55.0,52.0,-100.00,North,-999,0.0,-999.0,89,0.03,,,-99.99,,2013-06-11 08:32:00,
2013-06-11 04:42:00,55.0,52.0,-100.00,North,-999,0.0,-999.0,89,0.03,,,-99.99,,2013-06-11 08:42:00,
2013-06-11 05:02:00,54.0,51.0,-100.00,North,-999,-999.0,-999.0,91,0.11,,,0.33,,2013-06-11 09:02:00,
2013-06-11 05:12:00,54.0,51.0,-100.00,North,-999,-999.0,-999.0,91,0.11,,,0.33,,2013-06-11 09:12:00,
2013-06-11 05:22:00,54.0,51.0,-100.00,North,-999,-999.0,-999.0,91,0.11,,,0.33,,2013-06-11 09:22:00,
2013-06-11 05:33:00,54.0,51.0,-100.00,North,-999,-999.0,-999.0,91,0.11,,,0.33,,2013-06-11 09:33:00,
2013-06-11 05:43:00,54.0,51.0,-100.00,North,-999,-999.0,-999.0,91,0.11,,,0.33,,2013-06-11 09:43:00,
2013-06-11 06:03:00,55.0,53.0,-100.00,North,-999,0.0,-999.0,92,0.13,,,0.46,,2013-06-11 10:03:00,
2013-06-11 06:12:00,55.0,53.0,-100.00,North,-999,0.0,-999.0,92,0.13,,,0.46,,2013-06-11 10:12:00,
2013-06-11 06:23:00,55.0,53.0,-100.00,North,-999,0.0,-999.0,92,0.13,,,0.46,,2013-06-11 10:23:00,
2013-06-11 06:33:00,55.0,53.0,-100.00,North,-999,0.0,-999.0,92,0.13,,,0.46,,2013-06-11 10:33:00,
2013-06-11 06:42:00,55.0,53.0,-100.00,North,-999,0.0,-999.0,92,0.13,,,0.46,,2013-06-11 10:42:00,
2013-06-11 07:02:00,55.0,53.0,-100.00,North,-999,0.0,-999.0,92,0.13,,,-99.99,,2013-06-11 11:02:00,
2013-06-11 07:12:00,55.0,53.0,-100.00,North,-999,0.0,-999.0,92,0.13,,,-99.99,,2013-06-11 11:12:00,
2013-06-11 07:22:00,55.0,53.0,-100.00,North,-999,0.0,-999.0,92,0.13,,,-99.99,,2013-06-11 11:22:00,
2013-06-11 07:32:00,55.0,53.0,-100.00,North,-999,0.0,-999.0,92,0.13,,,-99.99,,2013-06-11 11:32:00,
2013-06-11 07:42:00,55.0,53.0,-100.00,North,-999,0.0,-999.0,92,0.13,,,-99.99,,2013-06-11 11:42:00,
2013-06-11 08:02:00,55.0,52.0,-100.00,North,-999,-999.0,-999.0,91,0.04,,,0.63,,2013-06-11 12:02:00,
2013-06-11 08:12:00,55.0,52.0,-100.00,North,-999,-999.0,-999.0,91,0.04,,,0.63,,2013-06-11 12:12:00,
2013-06-11 08:22:00,55.0,52.0,-100.00,North,-999,-999.0,-999.0,91,0.04,,,0.63,,2013-06-11 12:22:00,
2013-06-11 08:32:00,55.0,52.0,-100.00,North,-999,-999.0,-999.0,91,0.04,,,0.63,,2013-06-11 12:32:00,
2013-06-11 08:42:00,55.0,52.0,-100.00,North,-999,-999.0,-999.0,91,0.04,,,0.63,,2013-06-11 12:42:00,
2013-06-11 09:02:00,55.0,52.0,-100.00,North,-999,0.0,-999.0,91,0.02,,,0.65,,2013-06-11 13:02:00,
2013-06-11 09:12:00,55.0,52.0,-100.00,North,-999,0.0,-999.0,91,0.02,,,0.65,,2013-06-11 13:12:00,
2013-06-11 09:22:00,55.0,52.0,-100.00,North,-999,0.0,-999.0,91,0.02,,,0.65,,2013-06-11 13:22:00,
2013-06-11 09:32:00,55.0,52.0,-100.00,North,-999,0.0,-999.0,91,0.02,,,0.65,,2013-06-11 13:32:00,
2013-06-11 09:42:00,55.0,52.0,-100.00,North,-999,0.0,-999.0,91,0.02,,,0.65,,2013-06-11 13:42:00,
2013-06-11 10:02:00,55.0,53.0,-100.00,North,-999,0.0,-999.0,92,0.02,,,0.67,,2013-06-11 14:02:00,
2013-06-11 10:12:00,55.0,53.0,-100.00,North,-999,0.0,-999.0,92,0.02,,,0.67,,2013-06-11 14:12:00,
2013-06-11 10:22:00,55.0,53.0,-100.00,North,-999,0.0,-999.0,92,0.02,,,0.67,,2013-06-11 14:22:00,
2013-06-11 10:32:00,55.0,53.0,-100.00,North,-999,0.0,-999.0,92,0.02,,,0.67,,2013-06-11 14:32:00,
2013-06-11 10:42:00,55.0,53.0,-100.00,North,-999,0.0,-999.0,92,0.02,,,0.67,,2013-06-11 14:42:00,
2013-06-11 14:02:00,60.0,55.0,-100.00,North,-999,0.0,-999.0,83,-99.99,,,0.76,,2013-06-11 18:02:00,
2013-06-11 14:12:00,60.0,55.0,-100.00,North,-999,0.0,-999.0,83,-99.99,,,0.76,,2013-06-11 18:12:00,
2013-06-11 14:22:00,60.0,55.0,-100.00,North,-999,0.0,-999.0,83,-99.99,,,0.76,,2013-06-11 18:22:00,
2013-06-11 14:33:00,60.0,55.0,-100.00,North,-999,0.0,-999.0,83,-99.99,,,0.76,,2013-06-11 18:33:00,
2013-06-11 14:43:00,60.0,55.0,-100.00,North,-999,0.0,-999.0,83,-99.99,,,0.76,,2013-06-11 18:43:00,
2013-06-11 16:03:00,61.0,53.0,-100.00,North,-999,0.0,-999.0,76,-99.99,,,0.76,,2013-06-11 20:03:00,
2013-06-11 16:12:00,61.0,53.0,-100.00,North,-999,0.0,-999.0,76,-99.99,,,0.76,,2013-06-11 20:12:00,
2013-06-11 16:22:00,61.0,53.0,-100.00,North,-999,0.0,-999.0,76,-99.99,,,0.76,,2013-06-11 20:22:00,
2013-06-11 16:30:00,61.0,53.0,-100.00,North,-999,0.0,-999.0,76,0.00,,,0.76,,2013-06-11 20:30:00,
2013-06-11 16:32:00,61.0,53.0,-100.00,North,-999,0.0,-999.0,76,-99.99,,,0.76,,2013-06-11 20:32:00,
2013-06-11 16:42:00,61.0,53.0,-100.00,North,-999,0.0,-999.0,76,-99.99,,,0.76,,2013-06-11 20:42:00,
2013-06-11 17:02:00,61.0,53.0,-100.00,North,-999,0.0,-999.0,76,0.00,,,0.76,,2013-06-11 21:02:00,
2013-06-11 17:12:00,61.0,53.0,-100.00,North,-999,0.0,-999.0,76,0.00,,,0.76,,2013-06-11 21:12:00,
2013-06-11 17:22:00,61.0,53.0,-100.00,North,-999,0.0,-999.0,76,0.00,,,0.76,,2013-06-11 21:22:00,
2013-06-11 18:03:00,60.0,53.0,-100.00,North,-999,0.0,-999.0,77,-99.99,,,0.76,,2013-06-11 22:03:00,
2013-06-11 18:13:00,60.0,53.0,-100.00,North,-999,0.0,-999.0,77,-99.99,,,0.76,,2013-06-11 22:13:00,
2013-06-11 18:22:00,60.0,53.0,-100.00,North,-999,0.0,-999.0,77,-99.99,,,0.76,,2013-06-11 22:22:00,
2013-06-11 18:33:00,60.0,53.0,-100.00,North,-999,0.0,-999.0,77,-99.99,,,0.76,,2013-06-11 22:33:00,
2013-06-11 18:42:00,60.0,53.0,-100.00,North,-999,0.0,-999.0,77,-99.99,,,0.76,,2013-06-11 22:42:00,
2013-06-11 19:02:00,59.0,54.0,-100.00,North,-999,-999.0,-999.0,82,0.00,,,0.76,,2013-06-11 23:02:00,
2013-06-11 19:12:00,59.0,54.0,-100.00,North,-999,-999.0,-999.0,82,0.00,,,0.76,,2013-06-11 23:12:00,
2013-06-11 19:22:00,59.0,54.0,-100.00,North,-999,-999.0,-999.0,82,0.00,,,0.76,,2013-06-11 23:22:00,
2013-06-11 19:30:00,58.0,54.0,-100.00,North,-999,-999.0,-999.0,88,0.06,,,0.81,,2013-06-11 23:30:00,
2013-06-11 19:32:00,59.0,54.0,-100.00,North,-999,-999.0,-999.0,82,0.00,,,0.76,,2013-06-11 23:32:00,
2013-06-11 19:42:00,59.0,54.0,-100.00,North,-999,-999.0,-999.0,82,0.00,,,0.76,,2013-06-11 23:42:00,
2013-06-11 20:02:00,58.0,54.0,-100.00,North,-999,-999.0,-999.0,88,0.06,,,0.81,,2013-06-12 00:02:00,
2013-06-11 20:12:00,58.0,54.0,-100.00,North,-999,-999.0,-999.0,88,0.06,,,0.81,,2013-06-12 00:12:00,
2013-06-11 20:22:00,58.0,54.0,-100.00,North,-999,-999.0,-999.0,88,0.06,,,0.81,,2013-06-12 00:22:00,
2013-06-11 21:02:00,58.0,55.0,-100.00,North,-999,0.0,-999.0,89,-99.99,,,0.84,,2013-06-12 01:02:00,
2013-06-11 21:12:00,58.0,55.0,-100.00,North,-999,0.0,-999.0,89,-99.99,,,0.84,,2013-06-12 01:12:00,
2013-06-11 21:22:00,58.0,55.0,-100.00,North,-999,0.0,-999.0,89,-99.99,,,0.84,,2013-06-12 01:22:00,
2013-06-11 21:32:00,58.0,55.0,-100.00,North,-999,0.0,-999.0,89,-99.99,,,0.84,,2013-06-12 01:32:00,
2013-06-11 21:42:00,58.0,55.0,-100.00,North,-999,0.0,-999.0,89,-99.99,,,0.84,,2013-06-12 01:42:00,
2013-06-11 22:02:00,57.0,54.0,-100.00,North,-999,-999.0,-999.0,90,0.03,,,0.85,,2013-06-12 02:02:00,
2013-06-11 22:12:00,57.0,54.0,-100.00,North,-999,-999.0,-999.0,90,0.03,,,0.85,,2013-06-12 02:12:00,
2013-06-11 22:22:00,57.0,54.0,-100.00,North,-999,-999.0,-999.0,90,0.03,,,0.85,,2013-06-12 02:22:00,
2013-06-11 22:32:00,57.0,54.0,-100.00,North,-999,-999.0,-999.0,90,0.03,,,0.85,,2013-06-12 02:32:00,
2013-06-11 22:42:00,57.0,54.0,-100.00,North,-999,-999.0,-999.0,90,0.03,,,0.85,,2013-06-12 02:42:00,
2013-06-11 23:02:00,56.0,53.0,-100.00,North,-999,0.0,-999.0,90,0.00,,,0.83,,2013-06-12 03:02:00,
2013-06-11 23:12:00,56.0,53.0,-100.00,North,-999,0.0,-999.0,90,0.00,,,0.83,,2013-06-12 03:12:00,
2013-06-11 23:22:00,56.0,53.0,-100.00,North,-999,0.0,-999.0,90,0.00,,,0.83,,2013-06-12 03:22:00,
2013-06-11 23:33:00,56.0,53.0,-100.00,North,-999,0.0,-999.0,90,0.00,,,0.83,,2013-06-12 03:33:00,
2013-06-11 23:43:00,56.0,53.0,-100.00,North,-999,0.0,-999.0,90,0.00,,,0.83,,2013-06-12 03:43:00,